Location: Bemmer
(51.5498°N, 5.6249°E)
Time: 14:10:46
(UTC+00:00)

Cosmos 990 Rocket - Pass Details

Date: 03 March 2021
Orbit: 746 x 769 km, 74.0° (Epoch: 10 April)

Event Time Altitude Azimuth Distance (km) Brightness Sun altitude
Rises 20:27:30 0° 334° (NNW) 3,211 8.0 -28.8°
Reaches altitude 10° 20:29:52 10° 334° (NNW) 2,285 7.1 -29.1°
Enters shadow 20:34:01 58° 330° (NNW) 880 4.4 -29.7°
